Regional Weather Roundup
Issued by NWS

Home | Current Version | Previous Version | Graphics & Text | Print | Product List | Glossary On
Versions: 1 2 3 4 5 6 7 8 9 10 11 12 13 14 15 16 17 18 19 20 21 22 23 24 25 26 27 28 29 30 31 32 33 34 35 36 37 38 39 40 41 42 43 44 45 46 47 48 49 50
000
ASUS43 KLMK 281510
RWRKY
KENTUCKY REGIONAL WEATHER ROUNDUP
NATIONAL WEATHER SERVICE LOUISVILLE KY
1100 AM EDT WED JUN 28 2017

NOTE "FAIR" INDICATES FEW OR NO CLOUDS BELOW 12,000 FEET
WITH NO SIGNIFICANT WEATHER AND/OR OBSTRUCTIONS TO VISIBILITY.

KYZ001>023-026-027-061>063-070>075-281600-
WESTERN AND SOUTH CENTRAL KENTUCKY

CITY           SKY/WX    TMP DP  RH WIND       PRES   REMARKS
PADUCAH        MOSUNNY   79  60  52 S9G17     30.08F
HENDERSON      MOSUNNY   76  60  57 S8        30.12F
OWENSBORO      SUNNY     77  61  57 S10       30.13F
HOPKINSVILLE   SUNNY     78  57  48 S8        30.13F
BOWLING GREEN  SUNNY     78  58  49 SE9       30.16R
GLASGOW        SUNNY     76  57  51 S3        30.17S
$$

KYZ024-025-028>034-038-045-046-053-281600-
NORTH CENTRAL KENTUCKY

CITY           SKY/WX    TMP DP  RH WIND       PRES   REMARKS
LOUISVILLE/SDF PTSUNNY   77  54  44 S8        30.15S
LOUISVILLE/LOU SUNNY     76  55  48 S8        30.16S
FORT KNOX      SUNNY     75  56  51 S7        30.15R
$$

KYZ035>037-039>044-047>052-055>060-089>105-281600-
NORTHEAST KENTUCKY

CITY           SKY/WX    TMP DP  RH WIND       PRES   REMARKS
LEXINGTON      SUNNY     74  52  46 S7        30.19S
COVINGTON      PTSUNNY   73  56  54 S13       30.17S
FRANKFORT      SUNNY     75  54  47 S8        30.18R
$$

KYZ054-064>069-076>088-106>120-281600-
SOUTHEAST KENTUCKY

CITY           SKY/WX    TMP DP  RH WIND       PRES   REMARKS
JACKSON        SUNNY     71  57  61 CALM      30.22F
LONDON         SUNNY     72  53  51 SE5       30.20F
SOMERSET       SUNNY     70  55  60 CALM      30.21S
MIDDLESBORO    SUNNY     69  55  60 CALM      30.22F
MONTICELLO     SUNNY     75  57  53 SE5       30.21S
$$





USA.gov is the U.S. government's official web portal to all federal, state and local government web resources and services.